QPF
0.01 0.00 0.00 0.01 0.01 0.02 0.02 0.02 0.01 0.00 0.01 0.02 0.04 0.02 0.02 0.02 0.01 0.00 0.00 0.00 0.01 0.01 0.01 0.01 0.03 0.05 0.04 0.04 0.04 0.02 0.03 0.03 0.04 0.04 0.05 0.04 0.03 0.02 0.02 0.02 0.02 0.01 0.02 0.04 0.04 0.04 0.04 0.03 0.02
0.01 0.01 0.01 0.01 0.01 0.01 0.01 0.01 0.01 0.01 0.01 0.02 0.03 0.03 0.02 0.02 0.01 0.01 0.01 0.00 0.00 0.01 0.01 0.01 0.03 0.07 0.05 0.05 0.04 0.04 0.03 0.03 0.03 0.04 0.04 0.04 0.04 0.03 0.02 0.01 0.01 0.01 0.02 0.04 0.04 0.04 0.04 0.04 0.03
0.02 0.02 0.02 0.02 0.02 0.01 0.00 0.00 0.00 0.01 0.02 0.03 0.04 0.05 0.03 0.02 0.02 0.02 0.02 0.00 0.00 0.01 0.01 0.02 0.02 0.06 0.08 0.09 0.10 0.06 0.04 0.03 0.03 0.04 0.04 0.04 0.04 0.04 0.02 0.02 0.01 0.02 0.03 0.04 0.04 0.05 0.04 0.04 0.02
0.04 0.03 0.03 0.02 0.01 0.01 0.00 0.00 0.00 0.00 0.01 0.02 0.03 0.04 0.04 0.03 0.04 0.04 0.02 0.00 0.00 0.01 0.01 0.02 0.02 0.03 0.05 0.12 0.24 0.12 0.06 0.04 0.03 0.03 0.03 0.03 0.03 0.05 0.04 0.03 0.03 0.03 0.04 0.04 0.04 0.04 0.05 0.04 0.02
0.03 0.04 0.02 0.01 0.01 0.01 0.00 0.00 0.00 0.01 0.01 0.01 0.02 0.03 0.04 0.03 0.04 0.03 0.02 0.01 0.00 0.01 0.01 0.02 0.02 0.01 0.03 0.07 0.19 0.20 0.08 0.06 0.04 0.03 0.03 0.03 0.03 0.03 0.04 0.04 0.04 0.04 0.04 0.04 0.04 0.04 0.04 0.04 0.03
0.02 0.03 0.02 0.01 0.00 0.00 0.00 0.00 0.00 0.01 0.01 0.01 0.01 0.02 0.03 0.04 0.04 0.04 0.03 0.02 0.01 0.01 0.01 0.01 0.02 0.01 0.02 0.05 0.08 0.13 0.08 0.05 0.04 0.02 0.02 0.03 0.03 0.03 0.03 0.04 0.04 0.03 0.02 0.02 0.03 0.03 0.04 0.05 0.03
0.03 0.02 0.01 0.00 0.00 0.00 0.00 0.00 0.01 0.01 0.01 0.01 0.01 0.03 0.03 0.08 0.08 0.05 0.04 0.02 0.01 0.01 0.01 0.01 0.01 0.01 0.02 0.03 0.05 0.06 0.06 0.05 0.03 0.02 0.02 0.03 0.02 0.02 0.02 0.02 0.03 0.02 0.02 0.02 0.03 0.04 0.04 0.04 0.05
0.02 0.03 0.01 0.00 0.00 0.00 0.00 0.00 0.00 0.00 0.01 0.01 0.01 0.03 0.05 0.08 0.07 0.04 0.02 0.02 0.02 0.01 0.01 0.01 0.01 0.01 0.01 0.01 0.03 0.04 0.04 0.05 0.03 0.02 0.02 0.02 0.03 0.03 0.02 0.02 0.02 0.02 0.02 0.02 0.02 0.04 0.04 0.03 0.04
0.01 0.02 0.01 0.00 0.00 0.00 0.00 0.00 0.00 0.00 0.00 0.01 0.01 0.03 0.06 0.06 0.05 0.04 0.03 0.03 0.02 0.01 0.01 0.01 0.01 0.01 0.01 0.01 0.02 0.03 0.03 0.03 0.03 0.02 0.02 0.02 0.02 0.03 0.03 0.03 0.02 0.02 0.02 0.02 0.02 0.04 0.04 0.03 0.03
0.02 0.01 0.01 0.00 0.00 0.01 0.01 0.01 0.01 0.01 0.00 0.00 0.01 0.03 0.05 0.08 0.08 0.07 0.07 0.05 0.03 0.02 0.01 0.01 0.01 0.01 0.02 0.01 0.01 0.02 0.02 0.02 0.03 0.02 0.02 0.02 0.02 0.02 0.03 0.04 0.03 0.02 0.02 0.02 0.03 0.04 0.05 0.04 0.03
0.02 0.01 0.01 0.00 0.00 0.01 0.01 0.01 0.01 0.01 0.01 0.01 0.01 0.02 0.04 0.05 0.08 0.09 0.09 0.08 0.06 0.03 0.02 0.02 0.01 0.01 0.02 0.02 0.02 0.01 0.01 0.02 0.02 0.02 0.01 0.02 0.02 0.02 0.02 0.03 0.04 0.03 0.02 0.01 0.02 0.03 0.05 0.04 0.03
0.01 0.01 0.01 0.01 0.01 0.01 0.01 0.01 0.01 0.01 0.01 0.01 0.02 0.02 0.02 0.02 0.03 0.05 0.06 0.08 0.06 0.04 0.02 0.02 0.02 0.02 0.03 0.02 0.02 0.01 0.01 0.01 0.01 0.02 0.02 0.02 0.02 0.02 0.02 0.02 0.03 0.02 0.02 0.01 0.01 0.02 0.05 0.06 0.05
0.01 0.01 0.01 0.01 0.01 0.01 0.01 0.00 0.01 0.01 0.01 0.01 0.01 0.01 0.01 0.01 0.01 0.01 0.03 0.05 0.05 0.04 0.03 0.02 0.02 0.02 0.02 0.03 0.02 0.02 0.01 0.01 0.01 0.02 0.02 0.02 0.02 0.03 0.02 0.02 0.02 0.02 0.02 0.01 0.02 0.02 0.02 0.04 0.05
0.01 0.01 0.01 0.01 0.01 0.01 0.00 0.00 0.00 0.00 0.00 0.00 0.00 0.00 0.00 0.00 0.00 0.01 0.01 0.02 0.03 0.04 0.04 0.03 0.02 0.02 0.02 0.02 0.03 0.02 0.02 0.01 0.01 0.02 0.02 0.02 0.02 0.03 0.02 0.02 0.02 0.02 0.02 0.02 0.02 0.01 0.02 0.03 0.04
0.01 0.01 0.01 0.01 0.00 0.00 0.00 0.00 0.00 0.00 0.00 0.00 0.00 0.00 0.00 0.00 0.00 0.00 0.01 0.01 0.01 0.02 0.03 0.03 0.03 0.03 0.02 0.03 0.04 0.03 0.02 0.02 0.02 0.02 0.02 0.02 0.02 0.02 0.02 0.02 0.01 0.01 0.01 0.01 0.01 0.01 0.01 0.02 0.03
0.01 0.01 0.01 0.01 0.00 0.00 0.00 0.01 0.00 0.00 0.00 0.00 0.00 0.00 0.00 0.00 0.00 0.00 0.00 0.00 0.00 0.01 0.01 0.03 0.03 0.02 0.02 0.02 0.04 0.05 0.04 0.03 0.03 0.02 0.02 0.02 0.02 0.02 0.01 0.01 0.01 0.01 0.01 0.01 0.01 0.01 0.01 0.02 0.02
0.01 0.01 0.01 0.01 0.01 0.01 0.01 0.01 0.00 0.00 0.00 0.00 0.00 0.00 0.00 0.00 0.00 0.00 0.01 0.01 0.01 0.01 0.01 0.01 0.02 0.02 0.02 0.02 0.03 0.04 0.05 0.04 0.02 0.02 0.01 0.01 0.01 0.02 0.02 0.01 0.01 0.01 0.01 0.01 0.01 0.01 0.01 0.02 0.02
0.01 0.01 0.01 0.01 0.00 0.01 0.01 0.01 0.01 0.00 0.01 0.01 0.00 0.00 0.00 0.00 0.00 0.00 0.01 0.01 0.01 0.01 0.01 0.01 0.02 0.03 0.02 0.02 0.03 0.03 0.05 0.06 0.05 0.04 0.02 0.01 0.01 0.01 0.02 0.02 0.02 0.01 0.01 0.01 0.02 0.02 0.02 0.02 0.02
0.01 0.01 0.01 0.00 0.00 0.01 0.01 0.01 0.01 0.00 0.00 0.01 0.01 0.00 0.00 0.00 0.00 0.00 0.01 0.01 0.01 0.01 0.01 0.01 0.01 0.02 0.03 0.02 0.03 0.03 0.05 0.05 0.05 0.06 0.05 0.03 0.02 0.01 0.01 0.02 0.03 0.03 0.02 0.02 0.03 0.03 0.03 0.02 0.02
0.00 0.00 0.00 0.00 0.00 0.01 0.01 0.01 0.01 0.01 0.01 0.01 0.01 0.01 0.00 0.00 0.00 0.00 0.01 0.01 0.01 0.01 0.00 0.01 0.01 0.02 0.03 0.03 0.03 0.03 0.04 0.05 0.04 0.04 0.03 0.03 0.02 0.02 0.01 0.01 0.01 0.02 0.02 0.03 0.04 0.04 0.04 0.04 0.03
0.01 0.01 0.00 0.00 0.00 0.01 0.01 0.01 0.01 0.01 0.01 0.00 0.00 0.00 0.00 0.00 0.00 0.00 0.00 0.00 0.00 0.00 0.00 0.00 0.01 0.01 0.02 0.02 0.02 0.03 0.03 0.04 0.04 0.03 0.03 0.03 0.03 0.04 0.03 0.02 0.02 0.02 0.02 0.02 0.03 0.04 0.05 0.05 0.05
0.01 0.00 0.00 0.00 0.00 0.01 0.01 0.01 0.01 0.01 0.01 0.01 0.00 0.00 0.00 0.00 0.00 0.00 0.00 0.00 0.00 0.00 0.00 0.00 0.00 0.00 0.01 0.01 0.01 0.02 0.03 0.04 0.05 0.06 0.05 0.04 0.03 0.03 0.03 0.02 0.02 0.02 0.02 0.02 0.02 0.03 0.04 0.05 0.05
0.00 0.00 0.00 0.00 0.01 0.01 0.01 0.02 0.01 0.01 0.01 0.01 0.01 0.01 0.00 0.00 0.00 0.00 0.00 0.00 0.00 0.00 0.00 0.00 0.00 0.00 0.01 0.01 0.01 0.01 0.02 0.03 0.04 0.05 0.06 0.05 0.04 0.03 0.03 0.03 0.03 0.02 0.02 0.02 0.02 0.02 0.04 0.05 0.05
0.00 0.00 0.00 0.00 0.01 0.02 0.01 0.01 0.01 0.01 0.01 0.02 0.01 0.01 0.01 0.00 0.00 0.00 0.00 0.00 0.00 0.00 0.00 0.00 0.00 0.00 0.01 0.01 0.01 0.02 0.02 0.02 0.03 0.04 0.05 0.04 0.03 0.03 0.04 0.04 0.04 0.04 0.03 0.03 0.02 0.03 0.04 0.05 0.05
0.00 0.01 0.02 0.02 0.02 0.02 0.01 0.01 0.01 0.01 0.01 0.01 0.01 0.01 0.01 0.01 0.01 0.00 0.00 0.00 0.00 0.00 0.00 0.00 0.00 0.00 0.00 0.01 0.01 0.01 0.02 0.02 0.02 0.02 0.03 0.03 0.04 0.03 0.03 0.04 0.04 0.04 0.04 0.04 0.03 0.03 0.05 0.05 0.05
0.00 0.01 0.01 0.01 0.01 0.01 0.01 0.01 0.01 0.01 0.01 0.01 0.01 0.01 0.01 0.01 0.01 0.01 0.00 0.00 0.00 0.00 0.00 0.00 0.00 0.00 0.01 0.01 0.01 0.01 0.02 0.02 0.01 0.01 0.01 0.02 0.03 0.03 0.04 0.04 0.03 0.03 0.03 0.04 0.03 0.04 0.05 0.05 0.05
0.01 0.01 0.01 0.01 0.01 0.01 0.01 0.01 0.01 0.00 0.00 0.00 0.00 0.01 0.01 0.01 0.01 0.01 0.00 0.00 0.00 0.00 0.00 0.00 0.01 0.01 0.01 0.01 0.01 0.01 0.01 0.02 0.02 0.02 0.01 0.02 0.02 0.03 0.04 0.04 0.03 0.03 0.04 0.04 0.04 0.05 0.05 0.04 0.05
0.01 0.01 0.01 0.02 0.02 0.01 0.01 0.00 0.00 0.00 0.00 0.00 0.00 0.00 0.00 0.01 0.01 0.01 0.00 0.00 0.00 0.00 0.00 0.00 0.01 0.01 0.01 0.01 0.01 0.01 0.01 0.01 0.01 0.02 0.02 0.02 0.02 0.03 0.03 0.04 0.04 0.03 0.04 0.04 0.05 0.05 0.06 0.06 0.06
0.01 0.01 0.02 0.02 0.02 0.02 0.01 0.01 0.01 0.01 0.00 0.00 0.00 0.00 0.00 0.01 0.02 0.01 0.01 0.01 0.00 0.00 0.00 0.00 0.00 0.01 0.01 0.01 0.00 0.00 0.01 0.01 0.01 0.01 0.01 0.02 0.03 0.03 0.03 0.04 0.03 0.03 0.03 0.04 0.04 0.05 0.05 0.07 0.09
0.01 0.01 0.01 0.02 0.02 0.02 0.01 0.01 0.01 0.00 0.00 0.00 0.00 0.01 0.01 0.01 0.02 0.02 0.02 0.01 0.01 0.00 0.00 0.00 0.00 0.01 0.01 0.01 0.01 0.01 0.01 0.01 0.01 0.01 0.01 0.02 0.04 0.05 0.04 0.04 0.03 0.03 0.03 0.03 0.04 0.03 0.04 0.05 0.07
MSLP
1015.64 1015.93 1016.29 1016.68 1017.04 1017.32 1017.49 1017.52 1017.46 1017.34 1017.25 1017.25 1017.41 1017.73 1018.21 1018.79 1019.41 1019.98 1020.44 1020.76 1020.94 1020.99 1020.98 1020.94 1020.92 1020.94 1021.01 1021.11 1021.22 1021.30 1021.34 1021.33 1021.26 1021.15 1021.02 1020.88 1020.75 1020.62 1020.50 1020.37 1020.22 1020.04 1019.82 1019.54 1019.22 1018.84 1018.43 1018.00 1017.59
1015.77 1016.08 1016.43 1016.80 1017.13 1017.36 1017.48 1017.47 1017.37 1017.24 1017.15 1017.17 1017.35 1017.69 1018.19 1018.79 1019.41 1019.97 1020.43 1020.75 1020.93 1021.00 1021.00 1020.98 1020.99 1021.04 1021.13 1021.25 1021.38 1021.48 1021.54 1021.55 1021.51 1021.42 1021.32 1021.19 1021.06 1020.93 1020.78 1020.62 1020.42 1020.19 1019.91 1019.59 1019.20 1018.78 1018.33 1017.88 1017.46
1015.91 1016.22 1016.56 1016.90 1017.18 1017.37 1017.44 1017.40 1017.29 1017.16 1017.10 1017.15 1017.36 1017.74 1018.25 1018.86 1019.48 1020.04 1020.49 1020.81 1021.00 1021.09 1021.12 1021.13 1021.16 1021.22 1021.32 1021.45 1021.57 1021.68 1021.75 1021.78 1021.76 1021.71 1021.63 1021.52 1021.39 1021.23 1021.05 1020.84 1020.59 1020.29 1019.95 1019.57 1019.14 1018.69 1018.22 1017.76 1017.36
1016.07 1016.37 1016.69 1016.99 1017.22 1017.36 1017.40 1017.34 1017.23 1017.13 1017.10 1017.20 1017.45 1017.86 1018.39 1018.99 1019.60 1020.16 1020.61 1020.94 1021.14 1021.26 1021.32 1021.35 1021.39 1021.46 1021.56 1021.67 1021.78 1021.88 1021.96 1022.00 1022.01 1021.98 1021.93 1021.83 1021.70 1021.53 1021.32 1021.05 1020.74 1020.38 1019.98 1019.55 1019.09 1018.62 1018.15 1017.71 1017.33
1016.22 1016.52 1016.81 1017.06 1017.24 1017.34 1017.35 1017.29 1017.20 1017.13 1017.16 1017.30 1017.60 1018.03 1018.58 1019.18 1019.77 1020.31 1020.76 1021.09 1021.32 1021.46 1021.55 1021.61 1021.66 1021.73 1021.81 1021.90 1021.99 1022.08 1022.15 1022.21 1022.24 1022.25 1022.22 1022.15 1022.02 1021.84 1021.60 1021.29 1020.93 1020.52 1020.08 1019.62 1019.14 1018.67 1018.21 1017.78 1017.41
1016.35 1016.62 1016.88 1017.08 1017.22 1017.28 1017.26 1017.21 1017.15 1017.14 1017.23 1017.44 1017.78 1018.24 1018.79 1019.37 1019.95 1020.47 1020.90 1021.24 1021.49 1021.66 1021.78 1021.86 1021.93 1022.00 1022.06 1022.13 1022.20 1022.27 1022.34 1022.41 1022.47 1022.51 1022.52 1022.48 1022.37 1022.19 1021.93 1021.59 1021.20 1020.76 1020.30 1019.82 1019.35 1018.88 1018.43 1018.01 1017.64
1016.42 1016.67 1016.89 1017.04 1017.13 1017.15 1017.12 1017.08 1017.06 1017.11 1017.27 1017.54 1017.93 1018.42 1018.97 1019.55 1020.10 1020.60 1021.02 1021.36 1021.63 1021.83 1021.98 1022.10 1022.18 1022.25 1022.31 1022.36 1022.42 1022.48 1022.55 1022.64 1022.73 1022.82 1022.86 1022.86 1022.77 1022.60 1022.34 1021.99 1021.59 1021.14 1020.67 1020.19 1019.72 1019.25 1018.81 1018.38 1017.99
1016.44 1016.67 1016.83 1016.93 1016.96 1016.94 1016.90 1016.87 1016.89 1017.01 1017.23 1017.58 1018.02 1018.54 1019.10 1019.66 1020.19 1020.67 1021.08 1021.43 1021.71 1021.94 1022.13 1022.28 1022.40 1022.49 1022.55 1022.60 1022.65 1022.72 1022.81 1022.92 1023.05 1023.17 1023.26 1023.28 1023.22 1023.07 1022.81 1022.47 1022.06 1021.62 1021.15 1020.68 1020.21 1019.75 1019.29 1018.85 1018.41
1016.44 1016.63 1016.75 1016.79 1016.76 1016.69 1016.62 1016.60 1016.65 1016.82 1017.11 1017.51 1018.01 1018.56 1019.13 1019.68 1020.20 1020.66 1021.06 1021.41 1021.72 1021.98 1022.21 1022.41 1022.57 1022.69 1022.78 1022.85 1022.92 1023.00 1023.11 1023.25 1023.41 1023.56 1023.68 1023.74 1023.70 1023.56 1023.32 1022.98 1022.58 1022.14 1021.68 1021.22 1020.75 1020.28 1019.80 1019.31 1018.82
1016.47 1016.63 1016.69 1016.66 1016.56 1016.44 1016.33 1016.29 1016.36 1016.57 1016.90 1017.36 1017.89 1018.47 1019.05 1019.60 1020.10 1020.55 1020.94 1021.30 1021.63 1021.93 1022.21 1022.46 1022.67 1022.84 1022.98 1023.09 1023.19 1023.31 1023.44 1023.61 1023.79 1023.96 1024.10 1024.17 1024.15 1024.02 1023.79 1023.46 1023.07 1022.64 1022.19 1021.73 1021.26 1020.77 1020.25 1019.71 1019.15
1016.59 1016.72 1016.72 1016.62 1016.44 1016.25 1016.09 1016.02 1016.08 1016.30 1016.66 1017.13 1017.69 1018.28 1018.86 1019.41 1019.90 1020.33 1020.73 1021.09 1021.44 1021.78 1022.11 1022.42 1022.70 1022.94 1023.13 1023.30 1023.45 1023.60 1023.76 1023.94 1024.14 1024.32 1024.46 1024.54 1024.52 1024.40 1024.17 1023.86 1023.48 1023.06 1022.61 1022.14 1021.66 1021.14 1020.58 1019.98 1019.35
1016.83 1016.92 1016.87 1016.69 1016.44 1016.18 1015.96 1015.84 1015.87 1016.07 1016.42 1016.89 1017.44 1018.03 1018.60 1019.13 1019.60 1020.03 1020.41 1020.79 1021.16 1021.54 1021.92 1022.30 1022.65 1022.96 1023.22 1023.45 1023.65 1023.83 1024.02 1024.22 1024.41 1024.59 1024.73 1024.80 1024.78 1024.66 1024.44 1024.14 1023.77 1023.36 1022.91 1022.44 1021.93 1021.37 1020.77 1020.11 1019.42
1017.17 1017.22 1017.12 1016.89 1016.57 1016.24 1015.96 1015.78 1015.76 1015.91 1016.23 1016.67 1017.20 1017.76 1018.30 1018.81 1019.25 1019.66 1020.04 1020.41 1020.80 1021.22 1021.65 1022.08 1022.50 1022.89 1023.23 1023.52 1023.77 1023.99 1024.20 1024.40 1024.59 1024.75 1024.88 1024.94 1024.92 1024.80 1024.60 1024.31 1023.96 1023.56 1023.11 1022.62 1022.08 1021.49 1020.84 1020.13 1019.39
1017.54 1017.56 1017.42 1017.15 1016.79 1016.41 1016.07 1015.84 1015.76 1015.86 1016.12 1016.51 1016.98 1017.49 1017.99 1018.46 1018.88 1019.26 1019.62 1020.00 1020.40 1020.84 1021.32 1021.81 1022.30 1022.76 1023.16 1023.52 1023.81 1024.07 1024.29 1024.49 1024.66 1024.81 1024.92 1024.98 1024.96 1024.86 1024.68 1024.42 1024.09 1023.70 1023.25 1022.75 1022.18 1021.55 1020.86 1020.11 1019.33
1017.83 1017.82 1017.66 1017.38 1017.00 1016.60 1016.23 1015.96 1015.83 1015.86 1016.05 1016.37 1016.78 1017.23 1017.68 1018.11 1018.49 1018.85 1019.20 1019.57 1019.99 1020.45 1020.96 1021.51 1022.06 1022.58 1023.05 1023.46 1023.80 1024.08 1024.31 1024.51 1024.67 1024.81 1024.91 1024.97 1024.97 1024.89 1024.75 1024.52 1024.22 1023.84 1023.40 1022.89 1022.30 1021.64 1020.92 1020.14 1019.34
1017.94 1017.91 1017.75 1017.48 1017.12 1016.72 1016.35 1016.05 1015.87 1015.85 1015.97 1016.22 1016.56 1016.95 1017.35 1017.74 1018.10 1018.45 1018.79 1019.17 1019.59 1020.07 1020.62 1021.20 1021.80 1022.38 1022.91 1023.37 1023.76 1024.06 1024.31 1024.51 1024.67 1024.80 1024.90 1024.97 1024.99 1024.95 1024.84 1024.66 1024.39 1024.04 1023.61 1023.10 1022.50 1021.83 1021.09 1020.30 1019.50
1017.80 1017.77 1017.63 1017.39 1017.06 1016.70 1016.33 1016.02 1015.81 1015.73 1015.79 1015.97 1016.25 1016.60 1016.97 1017.33 1017.69 1018.04 1018.39 1018.78 1019.22 1019.73 1020.30 1020.92 1021.56 1022.19 1022.77 1023.28 1023.71 1024.04 1024.31 1024.51 1024.67 1024.81 1024.92 1025.00 1025.06 1025.06 1025.00 1024.86 1024.63 1024.31 1023.90 1023.40 1022.81 1022.14 1021.41 1020.64 1019.86
1017.43 1017.40 1017.30 1017.10 1016.83 1016.50 1016.15 1015.83 1015.58 1015.45 1015.44 1015.56 1015.79 1016.10 1016.46 1016.83 1017.21 1017.59 1017.98 1018.39 1018.86 1019.40 1020.00 1020.65 1021.33 1022.00 1022.63 1023.19 1023.65 1024.03 1024.32 1024.54 1024.71 1024.86 1024.99 1025.10 1025.18 1025.22 1025.20 1025.10 1024.92 1024.63 1024.25 1023.77 1023.21 1022.58 1021.89 1021.17 1020.43
1016.93 1016.91 1016.85 1016.70 1016.47 1016.16 1015.81 1015.46 1015.16 1014.96 1014.87 1014.93 1015.12 1015.41 1015.78 1016.19 1016.62 1017.06 1017.51 1017.98 1018.49 1019.06 1019.68 1020.37 1021.08 1021.79 1022.46 1023.07 1023.58 1024.00 1024.33 1024.58 1024.78 1024.94 1025.09 1025.22 1025.33 1025.40 1025.42 1025.36 1025.21 1024.96 1024.61 1024.18 1023.67 1023.10 1022.48 1021.83 1021.18
1016.43 1016.44 1016.41 1016.30 1016.08 1015.77 1015.39 1014.97 1014.58 1014.27 1014.09 1014.07 1014.21 1014.50 1014.90 1015.38 1015.89 1016.41 1016.95 1017.49 1018.06 1018.67 1019.32 1020.03 1020.77 1021.51 1022.23 1022.88 1023.45 1023.93 1024.31 1024.60 1024.84 1025.03 1025.20 1025.35 1025.48 1025.57 1025.61 1025.57 1025.45 1025.24 1024.93 1024.55 1024.11 1023.62 1023.11 1022.57 1022.02
1016.10 1016.14 1016.14 1016.04 1015.81 1015.45 1014.97 1014.43 1013.90 1013.44 1013.14 1013.02 1013.11 1013.39 1013.84 1014.39 1015.01 1015.65 1016.28 1016.91 1017.55 1018.20 1018.89 1019.61 1020.37 1021.14 1021.90 1022.61 1023.24 1023.78 1024.22 1024.57 1024.85 1025.08 1025.28 1025.45 1025.59 1025.69 1025.74 1025.71 1025.61 1025.42 1025.16 1024.84 1024.48 1024.10 1023.70 1023.30 1022.88
1016.04 1016.12 1016.14 1016.03 1015.75 1015.29 1014.67 1013.95 1013.22 1012.57 1012.10 1011.86 1011.88 1012.15 1012.64 1013.28 1014.02 1014.78 1015.53 1016.25 1016.95 1017.65 1018.36 1019.10 1019.87 1020.67 1021.46 1022.22 1022.92 1023.53 1024.05 1024.47 1024.81 1025.08 1025.31 1025.50 1025.64 1025.75 1025.79 1025.77 1025.68 1025.51 1025.29 1025.02 1024.74 1024.46 1024.19 1023.92 1023.63
1016.26 1016.39 1016.43 1016.29 1015.93 1015.33 1014.53 1013.59 1012.62 1011.75 1011.08 1010.69 1010.63 1010.89 1011.42 1012.14 1012.99 1013.87 1014.73 1015.55 1016.32 1017.05 1017.78 1018.52 1019.30 1020.11 1020.93 1021.74 1022.50 1023.19 1023.79 1024.29 1024.70 1025.03 1025.29 1025.50 1025.66 1025.76 1025.80 1025.77 1025.68 1025.52 1025.32 1025.11 1024.89 1024.70 1024.53 1024.38 1024.21
1016.68 1016.88 1016.93 1016.76 1016.31 1015.55 1014.54 1013.37 1012.15 1011.04 1010.17 1009.63 1009.48 1009.71 1010.27 1011.07 1012.02 1013.01 1013.98 1014.88 1015.70 1016.46 1017.19 1017.93 1018.71 1019.52 1020.37 1021.22 1022.04 1022.81 1023.49 1024.08 1024.56 1024.94 1025.25 1025.48 1025.65 1025.75 1025.78 1025.74 1025.64 1025.49 1025.31 1025.12 1024.94 1024.81 1024.71 1024.64 1024.56
1017.15 1017.42 1017.51 1017.31 1016.76 1015.86 1014.65 1013.25 1011.80 1010.48 1009.42 1008.75 1008.51 1008.72 1009.30 1010.16 1011.20 1012.28 1013.33 1014.30 1015.16 1015.94 1016.67 1017.40 1018.16 1018.97 1019.83 1020.72 1021.60 1022.43 1023.19 1023.85 1024.40 1024.85 1025.20 1025.46 1025.64 1025.74 1025.77 1025.72 1025.61 1025.46 1025.27 1025.08 1024.92 1024.81 1024.74 1024.71 1024.68
1017.52 1017.86 1017.98 1017.76 1017.13 1016.11 1014.75 1013.17 1011.54 1010.05 1008.85 1008.08 1007.79 1007.97 1008.58 1009.49 1010.59 1011.74 1012.85 1013.86 1014.75 1015.54 1016.26 1016.98 1017.72 1018.52 1019.39 1020.29 1021.21 1022.09 1022.91 1023.64 1024.25 1024.76 1025.15 1025.44 1025.64 1025.75 1025.78 1025.73 1025.61 1025.44 1025.24 1025.04 1024.86 1024.73 1024.65 1024.61 1024.58
1017.65 1018.06 1018.20 1017.97 1017.30 1016.20 1014.73 1013.05 1011.31 1009.72 1008.44 1007.62 1007.30 1007.49 1008.11 1009.06 1010.20 1011.40 1012.55 1013.58 1014.48 1015.27 1015.98 1016.68 1017.41 1018.20 1019.06 1019.97 1020.91 1021.82 1022.68 1023.45 1024.11 1024.66 1025.08 1025.40 1025.62 1025.75 1025.79 1025.74 1025.61 1025.43 1025.22 1024.99 1024.78 1024.60 1024.48 1024.40 1024.33
1017.50 1017.95 1018.10 1017.86 1017.16 1016.02 1014.52 1012.80 1011.03 1009.42 1008.15 1007.33 1007.02 1007.23 1007.87 1008.84 1010.00 1011.21 1012.37 1013.41 1014.31 1015.10 1015.80 1016.49 1017.20 1017.98 1018.83 1019.74 1020.68 1021.60 1022.48 1023.27 1023.95 1024.51 1024.97 1025.31 1025.56 1025.70 1025.75 1025.72 1025.60 1025.42 1025.18 1024.93 1024.68 1024.45 1024.27 1024.12 1023.99
1017.11 1017.55 1017.68 1017.41 1016.70 1015.55 1014.06 1012.37 1010.66 1009.11 1007.90 1007.13 1006.88 1007.11 1007.77 1008.74 1009.88 1011.08 1012.23 1013.26 1014.15 1014.94 1015.64 1016.33 1017.04 1017.81 1018.65 1019.54 1020.47 1021.38 1022.24 1023.03 1023.71 1024.29 1024.75 1025.12 1025.38 1025.56 1025.64 1025.63 1025.53 1025.36 1025.12 1024.85 1024.57 1024.29 1024.05 1023.84 1023.65
1016.59 1016.97 1017.03 1016.71 1015.96 1014.83 1013.38 1011.77 1010.16 1008.73 1007.63 1006.96 1006.76 1007.03 1007.69 1008.63 1009.74 1010.90 1012.00 1013.01 1013.89 1014.67 1015.38 1016.08 1016.81 1017.58 1018.42 1019.30 1020.20 1021.09 1021.93 1022.69 1023.36 1023.93 1024.40 1024.79 1025.08 1025.29 1025.41 1025.44 1025.38 1025.23 1025.02 1024.75 1024.45 1024.15 1023.87 1023.60 1023.36
Thickness
5664 5666 5666 5659 5643 5629 5630 5639 5645 5648 5651 5656 5659 5658 5657 5656 5656 5655 5661 5665 5666 5666 5667 5667 5668 5669 5669 5669 5669 5668 5668 5668 5668 5668 5669 5669 5669 5669 5669 5669 5669 5669 5669 5668 5668 5667 5666 5665 5664
5660 5661 5656 5645 5630 5621 5628 5638 5641 5646 5652 5654 5654 5655 5654 5653 5656 5656 5657 5660 5661 5662 5662 5663 5664 5664 5664 5665 5664 5664 5664 5663 5664 5664 5664 5664 5664 5664 5665 5664 5664 5664 5664 5664 5663 5662 5661 5661 5660
5655 5654 5642 5630 5622 5623 5632 5639 5640 5645 5649 5649 5647 5649 5649 5649 5651 5652 5654 5656 5657 5657 5657 5658 5659 5659 5659 5659 5659 5659 5659 5659 5659 5659 5659 5659 5659 5660 5660 5660 5659 5659 5659 5659 5658 5657 5656 5656 5655
5648 5639 5630 5620 5621 5626 5631 5636 5638 5640 5643 5644 5643 5641 5643 5646 5648 5649 5651 5651 5652 5652 5652 5652 5653 5654 5654 5654 5654 5654 5654 5654 5654 5654 5654 5654 5654 5654 5655 5654 5654 5654 5653 5653 5653 5652 5651 5651 5650
5638 5628 5618 5612 5618 5625 5627 5631 5632 5634 5635 5637 5638 5636 5638 5642 5644 5645 5646 5646 5646 5646 5646 5646 5647 5648 5648 5648 5648 5648 5648 5648 5648 5648 5648 5648 5648 5648 5649 5649 5648 5648 5648 5647 5647 5646 5646 5645 5644
5622 5616 5607 5607 5615 5621 5624 5627 5627 5627 5628 5630 5631 5630 5634 5637 5638 5639 5640 5640 5640 5640 5640 5640 5640 5641 5642 5642 5642 5641 5642 5642 5642 5642 5642 5642 5642 5642 5642 5642 5642 5642 5642 5642 5641 5640 5640 5639 5638
5614 5606 5603 5606 5610 5615 5621 5623 5621 5621 5621 5622 5625 5625 5630 5631 5632 5633 5633 5633 5633 5634 5634 5634 5634 5634 5634 5635 5635 5635 5635 5635 5635 5635 5635 5635 5635 5635 5635 5635 5636 5636 5636 5636 5635 5634 5634 5633 5632
5610 5601 5600 5600 5605 5610 5616 5617 5618 5617 5615 5618 5619 5618 5621 5624 5625 5626 5625 5625 5626 5626 5627 5628 5628 5628 5628 5628 5628 5628 5628 5628 5628 5628 5628 5628 5628 5628 5628 5628 5629 5629 5629 5629 5628 5628 5628 5627 5626
5606 5593 5593 5598 5600 5605 5609 5609 5610 5611 5609 5610 5611 5612 5614 5615 5617 5618 5618 5617 5618 5619 5620 5620 5621 5621 5621 5621 5621 5621 5621 5621 5621 5620 5621 5621 5621 5621 5621 5621 5621 5622 5622 5622 5621 5620 5620 5620 5619
5593 5586 5593 5598 5599 5600 5601 5601 5603 5602 5602 5602 5604 5605 5606 5606 5608 5609 5609 5609 5610 5611 5612 5612 5613 5614 5614 5614 5614 5614 5614 5614 5613 5613 5613 5613 5613 5613 5613 5613 5613 5614 5614 5614 5613 5613 5612 5612 5611
5585 5585 5589 5590 5593 5594 5593 5594 5595 5595 5594 5595 5597 5598 5597 5598 5598 5598 5598 5599 5601 5602 5603 5604 5605 5606 5607 5607 5607 5607 5607 5607 5606 5605 5605 5605 5605 5605 5605 5605 5605 5605 5605 5605 5605 5605 5604 5604 5603
5577 5579 5581 5582 5585 5585 5585 5586 5584 5585 5590 5593 5592 5591 5588 5587 5588 5589 5589 5591 5592 5593 5594 5596 5597 5598 5599 5600 5600 5600 5600 5599 5599 5598 5597 5597 5597 5597 5596 5596 5595 5595 5595 5595 5595 5596 5595 5595 5595
5570 5571 5572 5573 5573 5574 5575 5575 5576 5579 5583 5583 5581 5580 5578 5578 5579 5580 5581 5582 5583 5585 5586 5588 5589 5590 5591 5592 5592 5592 5592 5592 5591 5590 5590 5589 5589 5588 5588 5587 5586 5586 5586 5586 5586 5586 5586 5586 5586
5562 5561 5561 5563 5565 5566 5566 5568 5567 5575 5575 5573 5571 5569 5569 5569 5571 5571 5572 5573 5575 5577 5578 5579 5581 5582 5583 5584 5584 5584 5585 5584 5584 5583 5582 5582 5581 5580 5579 5578 5578 5578 5578 5578 5578 5578 5578 5577 5577
5552 5550 5553 5556 5558 5559 5559 5560 5561 5569 5566 5563 5562 5561 5561 5561 5562 5562 5564 5565 5566 5568 5570 5571 5573 5574 5574 5575 5576 5576 5576 5577 5576 5575 5574 5574 5573 5572 5572 5571 5570 5569 5569 5569 5569 5569 5569 5569 5569
5542 5540 5540 5550 5551 5551 5549 5554 5562 5559 5556 5554 5553 5552 5552 5553 5553 5554 5555 5556 5558 5559 5561 5563 5564 5565 5566 5566 5567 5568 5568 5568 5568 5567 5566 5566 5565 5564 5564 5563 5562 5561 5560 5560 5560 5560 5560 5560 5559
5527 5525 5529 5537 5541 5540 5538 5541 5550 5548 5547 5547 5544 5544 5543 5544 5545 5545 5546 5546 5548 5550 5552 5554 5555 5556 5557 5558 5559 5560 5559 5560 5560 5559 5558 5558 5557 5556 5556 5555 5553 5552 5551 5550 5550 5550 5550 5550 5550
5518 5514 5518 5521 5528 5526 5522 5527 5536 5535 5535 5536 5534 5535 5535 5536 5537 5536 5536 5537 5538 5540 5542 5544 5546 5547 5548 5549 5550 5550 5550 5550 5550 5550 5549 5549 5548 5548 5547 5546 5545 5544 5542 5541 5541 5540 5540 5540 5541
5510 5507 5507 5511 5516 5512 5512 5519 5526 5524 5522 5523 5524 5525 5527 5528 5528 5528 5528 5528 5529 5531 5532 5534 5535 5537 5538 5539 5539 5540 5541 5541 5540 5540 5540 5540 5540 5539 5539 5538 5536 5535 5533 5532 5532 5531 5531 5531 5531
5497 5496 5496 5501 5504 5502 5501 5506 5513 5514 5515 5516 5517 5517 5518 5518 5519 5519 5519 5519 5520 5521 5522 5524 5526 5527 5527 5529 5530 5531 5531 5531 5530 5529 5529 5530 5530 5529 5529 5528 5527 5525 5524 5523 5522 5522 5521 5521 5522
5487 5484 5486 5489 5492 5493 5491 5500 5508 5511 5507 5508 5506 5507 5508 5509 5509 5509 5509 5509 5510 5511 5512 5515 5516 5517 5518 5519 5520 5520 5520 5520 5519 5519 5519 5519 5519 5519 5519 5518 5517 5516 5515 5514 5514 5513 5513 5512 5511
5481 5481 5480 5480 5476 5476 5483 5482 5499 5500 5498 5499 5497 5495 5494 5495 5496 5496 5497 5498 5499 5500 5501 5503 5505 5507 5507 5508 5510 5510 5510 5510 5509 5509 5509 5509 5509 5509 5509 5508 5508 5507 5506 5506 5506 5505 5505 5504 5504
5472 5474 5472 5472 5468 5463 5466 5465 5484 5485 5490 5491 5488 5486 5485 5485 5485 5486 5486 5487 5488 5489 5491 5492 5494 5496 5497 5498 5499 5499 5499 5498 5497 5497 5498 5499 5498 5498 5499 5499 5499 5498 5498 5497 5497 5497 5497 5497 5497
5464 5464 5462 5456 5454 5450 5462 5456 5469 5469 5479 5481 5479 5476 5474 5473 5473 5474 5475 5476 5477 5478 5479 5481 5483 5484 5485 5486 5487 5487 5487 5486 5487 5487 5487 5488 5488 5489 5489 5489 5489 5489 5489 5489 5489 5489 5489 5489 5489
5457 5450 5440 5436 5428 5440 5450 5447 5459 5465 5465 5467 5468 5464 5462 5461 5460 5460 5462 5463 5465 5466 5468 5469 5471 5472 5473 5474 5475 5475 5475 5476 5476 5477 5477 5477 5478 5479 5479 5480 5481 5481 5481 5481 5480 5481 5481 5480 5481
5445 5444 5435 5431 5432 5438 5437 5439 5456 5457 5454 5453 5453 5452 5452 5450 5449 5450 5451 5452 5454 5456 5456 5457 5459 5461 5462 5463 5464 5464 5464 5465 5465 5466 5466 5468 5469 5470 5470 5471 5472 5472 5473 5473 5472 5472 5472 5472 5472
5435 5431 5434 5422 5412 5416 5427 5432 5443 5448 5447 5445 5444 5442 5439 5438 5439 5439 5440 5441 5443 5444 5445 5446 5447 5449 5451 5452 5453 5453 5453 5454 5455 5455 5456 5457 5458 5459 5460 5462 5463 5463 5464 5465 5465 5464 5464 5463 5463
5429 5424 5414 5409 5407 5414 5425 5430 5439 5444 5443 5438 5434 5432 5430 5428 5427 5428 5428 5429 5431 5433 5434 5435 5437 5439 5440 5441 5441 5442 5442 5443 5444 5444 5445 5446 5447 5449 5452 5453 5454 5454 5455 5456 5457 5456 5455 5455 5455
5414 5411 5407 5400 5401 5409 5411 5430 5433 5433 5432 5428 5426 5424 5419 5417 5416 5416 5416 5417 5418 5421 5422 5424 5427 5428 5429 5429 5429 5430 5431 5432 5433 5434 5435 5436 5437 5439 5442 5444 5445 5445 5446 5447 5448 5448 5447 5448 5447
5405 5403 5398 5395 5393 5396 5407 5421 5425 5419 5416 5415 5414 5413 5411 5409 5406 5405 5405 5405 5406 5408 5410 5411 5415 5417 5418 5418 5418 5419 5419 5421 5422 5423 5424 5425 5427 5428 5431 5433 5435 5436 5436 5437 5438 5439 5439 5439 5439